User: anonymous   Login
Location: NJAA Observatory
(40.6819°N, 74.8979°W)
Time: 10:06:39
(UTC-04:00)
Language:

Meteor 2-9 Rocket - Orbit

View from above orbital plane
View from above orbital plane
View from above satellite
View from above satellite

Ground track
Ground track

The orbit data is extracted from the following two-line orbital elements,

1 13719U 82116B   15147.77044647  .00000049  00000-0  18810-4 0  9991
2 13719 081.2554 016.4443 0071433 337.0155 090.9329 14.14542649674135
Epoch (UTC): 27 May 2015 18:29:26
Eccentricity: 0.0071433
inclination: 81.2554°
perigee height: 792 km
apogee height: 895 km
right ascension of ascending node: 16.4443°
argument of perigee: 337.0155°
revolutions per day: 14.14542649
mean anomaly at epoch: 90.9329°
orbit number at epoch: 67413

The dashed part of the orbit path shows where the satellite is in the earth's shadow,  

DLR